Regional Weather Roundup
Issued by NWS

Home | Current Version | Previous Version | Graphics & Text | Print | Product List | Glossary On
Versions: 1 2 3 4 5 6 7 8 9 10 11 12 13 14 15 16 17 18 19 20 21 22 23 24 25 26 27 28 29 30 31 32 33 34 35 36 37 38 39 40 41 42 43 44 45 46 47 48 49 50
204
ASUS43 KOAX 270810
RWRNE

WEATHER ROUNDUP FOR NEBRASKA
NATIONAL WEATHER SERVICE OMAHA NE
300 AM CDT TUE JUN 27 2017

NOTES: SATELLITE DATA IS BEING USED TO AUGMENT CLOUD COVER ABOVE
       12000 FEET.
       "FAIR" INDICATES FEW OR NO CLOUDS BELOW 12,000 FEET WITH NO
       SIGNIFICANT WEATHER AND/OR OBSTRUCTIONS TO VISIBILITY.

  * THESE STATIONS DO NOT REPORT WEATHER SUCH AS RAIN...SNOW OR FOG.

NEZ001>004-019>022-054>056-270900-
NEBRASKA PANHANDLE

CITY           SKY/WX    TMP DP  RH WIND       PRES   REMARKS
SCOTTSBLUFF    CLOUDY    64  54  69 SE14      30.02F
ALLIANCE       CLEAR     59  50  72 S16G26    30.04F
CHADRON        CLEAR     66  48  52 S31G40    29.93F
GORDON         FAIR      59  45  58 S9        30.03F
KIMBALL        PTCLDY    58  57  96 SE17G25   30.08F
SIDNEY         PTCLDY    60  53  77 S17       30.08F
$$

NEZ057>060-069>072-079>082-270900-
SOUTHWEST NEBRASKA

CITY           SKY/WX    TMP DP  RH WIND       PRES   REMARKS
NORTH PLATTE   CLEAR     55  52  89 E9        30.09F
IMPERIAL       CLEAR     60  55  83 SE12      30.09F
LEXINGTON      CLEAR     60  57  91 SE9       30.11F
MCCOOK         PTCLDY    61  59  93 E9        30.09F
OGALLALA       CLEAR     61  52  72 SE6       30.09F
$$

NEZ005>010-023>029-035>040-094-270900-
NORTH CENTRAL NEBRASKA

CITY           SKY/WX    TMP DP  RH WIND       PRES   REMARKS
VALENTINE      CLEAR     58  42  55 S8        30.06F
AINSWORTH      CLEAR     54  45  72 S12       30.08F
BROKEN BOW     CLEAR     53  48  83 SE5       30.11S
O`NEILL        CLEAR     50  44  80 S7        30.11S
ORD            CLEAR     51  45  79 E3        30.10F
THEDFORD       CLEAR     54  46  73 SE6       30.09F
$$

NEZ041-046>049-061>064-073>077-083>087-270900-
SOUTH CENTRAL NEBRASKA

CITY           SKY/WX    TMP DP  RH WIND       PRES   REMARKS
GRAND ISLAND   CLEAR     58  58 100 SE7       30.13F FOG
AURORA         FOG       57  57 100 SE6       30.13S VSB 1/4
HASTINGS       CLOUDY    59  57  93 SE9       30.14S FOG
HEBRON         FOG       57  57  97 CALM      30.13F VSB 1/2
HOLDREGE       MOCLDY    59  57  95 SE10      30.11F FOG
KEARNEY *      PTCLDY    57  54  88 SE6       30.12F
YORK           PTCLDY    57  57 100 SE5       30.13F FOG
$$

NEZ011>018-030>034-042>045-270900-
NORTHEAST NEBRASKA

CITY           SKY/WX    TMP DP  RH WIND       PRES   REMARKS
NORFOLK        CLEAR     49  43  80 SE7       30.12F
ALBION         CLEAR     48  43  83 CALM      30.12F
BLAIR          CLEAR     58  48  69 E5        30.13F
FREMONT        CLEAR     57  49  75 CALM      30.13F
TEKAMAH        CLEAR     49  41  74 CALM      30.13F
WAYNE          CLEAR     49  44  82 SW5       30.13S
$$

NEZ050>053-065>068-078-088>093-270900-
SOUTHEAST NEBRASKA

CITY           SKY/WX    TMP DP  RH WIND       PRES   REMARKS
LINCOLN        CLEAR     56  51  84 CALM      30.14F
OMAHA EPPLEY   CLEAR     57  49  74 CALM      30.14S
BEATRICE       CLEAR     56  56  99 CALM      30.13F FOG
FALLS CITY     FOG       55  55 100 CALM      30.13F VSB 1/4
NEBRASKA CITY  CLEAR     59  59 100 CALM      30.14S
PLATTSMOUTH    CLEAR     57  54  88 SE5       30.14S
$$

NEZ044-045-051>053-067-270900-
OMAHA AREA

CITY           SKY/WX    TMP DP  RH WIND       PRES   REMARKS
OMAHA EPPLEY   CLEAR     57  49  74 CALM      30.14S
BLAIR          CLEAR     58  48  69 E5        30.13F
FREMONT        CLEAR     57  49  75 CALM      30.13F
MILLARD        CLEAR     56  54  91 CALM      30.14S
OFFUTT AFB     CLEAR     51  49  92 E3        30.13S
PLATTSMOUTH    CLEAR     57  54  88 SE5       30.14S
WAHOO          FAIR      54  47  78 CALM      30.13F
$$




USA.gov is the U.S. government's official web portal to all federal, state and local government web resources and services.